Greenville Junction, ME

10:20 PM EST on February 05, 2016 (GMT -0500)
Greenville

Weather History for KGNR - February, 2013

Change the Weather History Date:

Friday, February 22, 2013

  Actual Average (KMLT) Record (KMLT)
Temperature  
Mean Temperature 20 °F 21 °F  
Max Temperature 25 °F 31 °F 54 °F (1912)
Min Temperature 15 °F 11 °F -25 °F (1993)
Degree Days  
Heating Degree Days 45 44  
Month to date heating degree days 1049  
Since 1 July heating degree days 5795  
Cooling Degree Days 0 0  
Month to date cooling degree days 0  
Year to date cooling degree days 0  
Moisture  
Dew Point 16 °F    
Average Humidity 83    
Maximum Humidity 92    
Minimum Humidity 74    
Precipitation  
Precipitation 0.00 in 0.10 in 0.96 in (1934)
Month to date precipitation 1.59  
Year to date precipitation 4.52  
Sea Level Pressure  
Sea Level Pressure 30.32 in    
Wind  
Wind Speed 9 mph (NNW)    
Max Wind Speed 15 mph    
Max Gust Speed 22 mph    
T = Trace of Precipitation, MM = Missing Value Source: NWS Daily Summary

Daily Weather History Graph

Daily Weather History Graph

Search for Another Location

Airport or City:

Trip Planner

Search our weather history database for the weather conditions in past years. The results will help you decide how hot, cold, wet, or windy it might be!

Date:

Astronomy

Feb. 22, 2013 Rise Set
Actual Time 6:28 AM EST 5:15 PM EST
Civil Twilight 5:58 AM EST 5:45 PM EST
Nautical Twilight 5:24 AM EST 6:20 PM EST
Astronomical Twilight 4:49 AM EST 6:54 PM EST
Moon 2:18 PM EST (2/22) 4:17 AM EST (2/22)
Length of Visible Light 11h 47m
Length of Day
10h 47m
Waxing Gibbous, 90% of the Moon is Illuminated
Feb 22
Waxing Gibbous
Feb 25
Full
Mar 4
Last Quarter
Mar 11
New
Mar 19
First Quarter

Hourly Weather History & Observations

Time (EST) Temp. Windchill Dew Point Humidity Pressure Visibility Wind Dir Wind Speed Gust Speed Precip Events Conditions
12:56 AM 23.0 °F 10.1 °F 19.0 °F 85% 30.19 in - NNW 15.0 mph - N/A   Unknown
1:56 AM 21.0 °F 9.3 °F 19.0 °F 92% 30.23 in - NW 11.5 mph - N/A   Unknown
2:56 AM 21.0 °F 10.6 °F 17.1 °F 85% 30.24 in - NNW 9.2 mph - N/A   Unknown
3:56 AM 19.0 °F 11.1 °F 16.0 °F 88% 30.26 in - Variable 5.8 mph 16.1 mph N/A   Unknown
4:56 AM 19.0 °F 9.0 °F 16.0 °F 88% 30.27 in - NNW 8.1 mph - N/A   Unknown
5:56 AM 19.9 °F 11.1 °F 16.0 °F 85% 30.28 in - North 6.9 mph - N/A   Unknown
6:56 AM 21.0 °F 11.4 °F 16.0 °F 81% 30.31 in - North 8.1 mph 21.9 mph N/A   Unknown
7:56 AM 21.0 °F 11.4 °F 16.0 °F 81% 30.34 in - NNW 8.1 mph - N/A   Unknown
8:56 AM 21.0 °F 11.4 °F 16.0 °F 81% 30.36 in - North 8.1 mph 18.4 mph N/A   Unknown
9:56 AM 21.0 °F 9.9 °F 15.1 °F 78% 30.38 in - NW 10.4 mph - N/A   Unknown
10:56 AM 21.9 °F 10.4 °F 16.0 °F 78% 30.38 in - North 11.5 mph - N/A   Unknown
11:56 AM 23.0 °F 11.7 °F 16.0 °F 74% 30.36 in - North 11.5 mph - N/A   Unknown
12:56 PM 24.1 °F 17.0 °F 18.0 °F 77% 30.34 in - Variable 5.8 mph - N/A   Unknown
1:56 PM 25.0 °F 14.8 °F 18.0 °F 75% 30.34 in - North 10.4 mph - N/A   Unknown
2:56 PM 24.1 °F 13.7 °F 18.0 °F 77% 30.33 in - NNW 10.4 mph - N/A   Unknown
3:56 PM 23.0 °F 15.8 °F 18.0 °F 81% 30.35 in - NNW 5.8 mph - N/A   Unknown
4:56 PM 21.9 °F 11.7 °F 17.1 °F 82% 30.34 in - North 9.2 mph - N/A   Unknown
5:56 PM 21.0 °F 16.2 °F 17.1 °F 85% 30.33 in - North 3.5 mph - N/A   Unknown
6:56 PM 19.0 °F - 15.1 °F 85% 30.34 in - Calm Calm - N/A   Unknown
7:56 PM 17.1 °F 8.7 °F 14.0 °F 88% 30.33 in - NE 5.8 mph - N/A   Unknown
8:56 PM 17.1 °F - 14.0 °F 88% 30.34 in - Calm Calm - N/A   Unknown
9:56 PM 16.0 °F - 12.9 °F 88% 30.35 in - Calm Calm - N/A   Unknown
10:56 PM 15.1 °F - 12.0 °F 88% 30.35 in - Calm Calm - N/A   Unknown
11:56 PM 15.1 °F - 12.0 °F 88% 30.33 in - Calm Calm - N/A   Unknown